カタログに戻る

FENGYUN 1C DEB

運用中SSO
NORAD 31155·DEBRIS·🇨🇳 China

打ち上げ May 10, 1999 から Taiyuan Satellite Launch Center

Loading…

次のパス (今後24時間)

TLE

最新Source: Space-Track

元期: Sep 11, 2026, 16:50 UTC

1 31155U 99025BHH 26254.70191701  .00001479  00000-0  84381-3 0  9993
2 31155  99.0256 329.1949 0086666 318.1009  41.3549 14.09413210994316

AllMySatでFENGYUN 1C DEBをリアルタイム追跡

Download on the App Store